Theta_e
319 319 319 318 319 318 317 316 315 313 312 309 308 305 302 302 302 301 302 301 301 302 301 301 301 302 302 302 302 302 301 301 302 302 302 302 305 306 307 311 315 316 318 320 320 321 322 322 322 321 321 321 320 319 320 320 321 321 321 320 319 320 320 319 319 319 319 319 321 321 320 321 321 322 323 324 324 325 325 326 327 328 329 329 330
317 317 316 316 316 316 315 314 312 310 309 307 305 303 301 301 302 302 302 302 301 301 300 301 300 301 301 301 301 300 301 301 301 301 302 302 304 305 305 309 313 316 317 318 319 320 320 320 320 320 319 320 320 319 319 320 320 320 320 319 318 319 319 318 318 318 318 318 319 319 319 320 320 321 321 322 322 323 324 324 325 326 326 327 328
316 315 314 315 314 313 313 312 310 308 307 305 303 303 302 301 302 300 300 300 300 300 300 300 300 300 300 301 300 300 300 300 300 301 301 302 303 305 307 306 309 313 314 315 316 317 318 319 319 319 319 319 318 318 318 319 319 319 318 318 317 317 317 318 317 317 317 317 317 317 318 319 320 320 320 320 321 321 322 323 323 323 324 324 325
315 314 313 313 312 312 312 310 309 306 305 304 302 303 302 303 303 302 302 302 300 299 301 299 299 299 300 300 300 300 299 300 300 300 301 302 302 304 307 309 307 309 311 313 314 315 316 317 317 317 317 318 318 317 318 318 317 317 317 316 316 317 317 317 316 315 316 316 316 316 317 318 319 319 319 319 320 320 320 321 321 322 322 322 323
313 312 311 311 310 310 309 308 308 305 303 303 302 302 301 300 300 301 300 301 299 299 300 300 299 299 299 299 299 299 299 300 300 300 300 301 302 302 305 307 309 306 306 308 310 312 313 314 315 316 316 316 316 316 316 316 316 316 315 315 315 316 316 316 314 314 315 315 315 315 316 317 318 317 318 318 318 318 318 319 320 320 321 321 321
312 311 310 309 308 308 308 306 305 304 302 302 300 300 299 299 299 298 298 298 298 298 297 298 298 298 298 298 299 298 299 299 299 299 300 300 301 302 302 303 305 307 306 303 305 308 311 312 313 314 315 314 314 314 315 315 315 315 315 315 315 315 315 314 314 314 314 314 314 314 314 315 316 316 316 316 316 317 318 318 318 319 320 320 320
310 309 308 307 306 306 305 305 304 303 301 300 299 299 300 300 298 297 297 298 298 298 298 298 297 297 298 297 298 298 299 299 299 299 299 300 300 301 302 301 301 303 304 302 301 301 306 309 310 311 312 312 312 313 314 313 314 314 314 314 314 314 313 312 313 313 313 313 313 313 314 314 315 315 315 315 316 316 316 317 317 317 318 318 319
308 308 306 305 304 304 303 303 302 301 300 300 300 299 299 300 299 299 296 297 298 297 298 298 298 298 297 297 297 297 298 298 298 298 299 299 300 300 300 300 300 299 300 300 298 299 300 304 306 307 308 308 310 312 312 313 313 313 313 313 313 311 312 312 312 312 312 312 312 312 312 313 314 314 314 314 315 315 315 315 316 317 317 317 317
307 306 306 304 303 302 302 302 301 300 300 300 299 300 300 299 298 299 298 296 297 297 296 297 297 297 297 297 298 297 298 297 297 297 299 299 299 299 299 299 297 298 297 296 297 296 297 300 301 302 303 305 306 309 311 311 311 312 312 312 311 311 311 311 311 311 311 311 311 311 311 312 313 313 313 313 314 314 314 314 314 315 315 316 317
306 305 304 304 303 302 301 301 300 300 300 299 298 299 299 298 297 298 298 297 295 296 295 296 297 296 296 296 296 297 297 297 297 296 297 297 298 298 298 297 297 297 296 297 296 295 296 295 296 297 298 301 304 307 309 310 310 311 311 311 311 311 311 310 310 310 310 310 310 311 311 311 312 312 312 312 313 313 313 313 314 314 314 314 315
305 304 303 302 301 301 301 300 300 299 299 298 299 299 299 298 297 296 297 298 296 296 296 297 297 296 295 295 296 296 296 296 296 296 297 297 297 297 298 297 297 296 296 296 295 295 296 296 296 296 296 297 300 303 306 308 308 309 310 311 310 311 310 310 310 309 309 309 310 310 310 310 311 311 312 312 312 312 312 313 313 313 312 313 313
304 304 303 301 301 300 299 300 299 299 298 298 297 297 297 297 297 296 295 296 297 298 297 295 295 294 294 294 295 295 295 295 296 296 296 297 295 295 295 296 295 295 295 295 295 295 295 295 295 295 295 294 295 297 301 303 306 308 309 310 311 310 309 308 308 308 308 309 309 309 309 309 310 310 310 310 310 311 311 311 311 311 311 311 312
303 303 302 300 300 300 299 299 299 298 298 298 299 298 298 297 297 296 295 293 294 296 297 296 294 293 293 293 293 294 293 294 293 294 295 295 295 294 294 294 294 294 294 294 294 294 294 295 295 295 294 295 293 293 296 298 301 307 308 308 309 309 309 308 308 308 307 307 308 308 308 308 308 308 309 308 309 309 310 310 310 310 311 311 312
302 302 301 301 300 299 298 297 297 298 298 299 299 298 298 297 297 295 296 294 293 295 296 295 293 292 291 290 291 291 292 292 292 293 294 294 294 294 294 294 293 293 293 293 293 293 293 294 294 294 294 294 294 294 296 298 299 302 307 307 308 308 308 308 307 307 306 305 306 305 306 307 307 307 307 308 308 309 309 309 309 310 310 310 311
302 301 301 301 300 298 297 297 297 298 297 298 298 297 297 296 296 294 293 295 295 295 296 297 293 296 295 292 290 289 290 290 292 292 292 293 294 294 294 294 293 293 293 293 292 292 293 293 293 293 293 293 293 293 294 295 294 296 300 301 305 307 307 306 305 306 305 304 304 305 305 305 306 306 306 307 307 308 308 308 308 309 309 310 311
302 301 301 301 300 298 297 297 297 298 297 297 297 297 296 296 295 295 294 292 294 292 295 296 298 296 291 292 293 292 290 289 289 290 292 292 292 293 293 292 292 293 293 292 292 292 292 292 292 292 293 293 293 293 295 295 294 294 294 295 297 301 304 305 305 305 304 304 303 304 304 304 305 305 306 306 306 307 307 308 308 308 309 309 310
302 301 300 300 300 299 298 297 297 297 297 297 297 296 296 296 296 295 294 292 292 292 293 296 296 299 296 292 289 289 292 294 291 290 291 290 291 292 292 292 292 292 292 292 292 292 292 291 292 292 292 292 293 293 293 295 296 296 295 293 295 296 299 302 303 303 303 303 303 304 303 303 303 304 305 305 305 306 307 307 307 307 308 308 309
302 301 300 299 300 299 299 297 297 296 297 297 297 297 297 296 296 295 295 295 294 293 291 293 295 296 295 297 299 295 295 293 292 289 290 292 292 291 292 291 293 292 292 292 292 292 291 291 291 291 292 292 292 293 293 294 295 297 297 295 295 296 296 297 300 300 301 301 301 303 303 303 303 304 304 304 304 305 305 306 306 306 307 307 308
301 301 300 299 300 299 299 298 297 297 296 296 296 296 296 296 296 295 295 296 296 293 293 291 293 292 294 295 296 291 298 293 291 294 288 289 291 291 290 291 291 291 292 292 292 292 291 291 291 291 291 292 292 292 293 293 294 294 293 293 294 295 295 295 295 297 298 299 300 301 302 302 302 302 302 302 303 304 304 305 305 306 306 307 307
300 300 300 299 299 299 299 298 297 297 296 295 296 297 297 297 296 296 296 295 297 294 294 293 290 290 293 292 291 292 294 295 301 296 294 291 288 290 291 291 290 290 291 291 291 291 291 290 290 290 290 291 291 292 292 292 294 294 293 293 293 294 294 294 294 294 295 296 298 299 300 301 301 301 301 301 302 303 304 304 304 305 305 306 306
300 300 299 299 298 299 299 298 297 296 295 296 296 297 296 296 295 294 294 294 295 296 296 295 293 293 291 291 293 292 293 295 294 295 294 293 291 289 289 290 290 290 290 291 291 292 291 291 290 290 290 291 291 291 291 292 293 294 291 291 292 293 293 293 293 293 293 294 295 296 298 299 299 299 300 301 301 302 303 303 303 303 304 305 305
298 299 299 299 299 298 298 298 297 297 295 295 296 296 296 296 295 294 295 294 295 295 296 296 295 296 294 294 291 291 291 291 291 293 293 295 293 292 292 288 286 288 290 290 290 290 290 290 289 289 290 290 290 291 292 292 293 293 289 289 290 290 291 291 292 292 293 293 293 294 295 296 297 298 298 300 301 302 302 303 303 303 303 304 304
297 298 298 298 298 298 298 297 297 296 295 295 295 295 295 295 295 295 294 294 294 294 295 297 296 296 295 294 292 292 291 291 291 292 292 291 290 292 293 292 291 290 289 291 290 290 290 290 289 289 290 290 290 291 291 292 290 288 287 288 288 289 290 291 291 291 292 292 292 293 293 294 294 295 297 299 300 301 301 302 302 302 303 303 303
297 297 297 298 298 297 297 297 296 296 295 295 295 295 295 295 295 294 294 294 294 294 294 294 295 295 296 295 294 295 294 294 295 294 293 293 293 292 292 291 289 291 290 288 290 289 289 289 289 290 290 290 290 291 291 291 289 286 287 285 287 287 289 290 290 290 291 291 291 291 292 292 293 293 295 297 298 299 300 301 301 301 302 302 302
296 296 296 297 297 296 296 296 296 296 296 295 295 295 294 294 294 294 294 293 293 293 292 293 294 293 294 295 295 295 295 297 298 296 295 296 294 292 293 291 289 288 288 288 288 288 289 289 289 289 289 289 290 290 291 291 290 286 285 285 285 285 286 287 288 289 290 290 290 290 291 291 292 292 294 295 297 298 299 299 300 301 301 301 301
296 296 297 297 296 297 297 296 296 296 296 295 295 295 295 293 293 293 293 294 293 293 293 294 294 295 295 293 293 294 295 297 296 296 295 294 292 292 291 288 290 290 287 287 288 286 287 288 289 289 289 289 289 290 290 290 288 284 283 285 285 283 284 286 288 289 289 289 289 289 290 290 291 291 292 294 295 296 297 298 299 299 299 299 300
297 297 297 297 296 296 296 296 296 296 296 295 295 295 294 294 293 293 293 293 293 293 292 293 293 293 294 293 293 293 294 295 294 295 296 294 294 293 291 287 285 287 286 287 287 285 288 286 288 288 288 289 289 289 289 289 287 284 284 286 287 282 283 285 287 288 288 288 288 289 289 289 289 291 291 292 293 294 295 296 297 298 298 298 297
298 298 297 297 296 296 296 296 296 296 295 295 295 294 294 293 292 292 292 293 292 292 292 292 293 293 293 293 293 292 293 294 293 294 295 295 295 295 293 291 288 285 285 285 285 285 289 286 287 288 288 288 289 288 288 287 287 284 283 287 286 285 283 284 286 287 287 288 288 288 288 288 289 290 290 291 291 292 293 293 294 294 294 294 294
298 298 297 297 296 296 295 295 295 295 295 294 294 294 293 292 291 291 291 292 291 292 291 291 291 292 292 292 291 292 292 293 292 293 294 294 295 295 294 292 292 289 286 284 285 285 286 287 285 286 288 288 287 288 286 287 286 285 287 286 285 285 283 283 285 286 287 287 287 287 287 288 289 289 289 290 291 291 292 293 293 293 293 293 294
297 298 297 296 296 294 295 294 294 294 294 294 293 293 293 292 291 291 291 292 291 291 291 291 291 291 291 291 291 291 292 291 291 291 292 292 292 293 292 293 293 290 290 287 287 288 287 286 287 286 286 286 287 287 286 287 284 284 286 285 285 284 282 283 284 285 286 286 286 286 287 288 288 288 289 290 290 291 292 292 292 292 292 293 294
295 295 295 295 295 294 294 294 294 293 293 293 293 292 292 291 291 290 291 291 290 290 290 290 290 290 290 290 290 290 291 291 290 290 291 291 291 291 291 292 292 292 290 289 286 288 289 284 286 288 285 286 286 286 286 286 284 283 285 285 284 282 280 282 282 283 284 285 285 286 286 287 288 288 289 289 290 290 291 291 291 291 291 292 293
295 295 295 294 294 294 293 293 293 293 293 292 292 292 291 291 290 290 290 290 289 289 289 289 289 289 289 288 289 289 290 290 289 289 289 290 290 290 290 290 290 290 290 289 287 286 287 287 286 286 286 285 285 284 284 285 284 282 284 283 283 281 282 283 282 282 283 284 284 285 286 287 287 288 288 289 289 289 289 290 290 290 290 291 292
294 294 294 294 294 294 293 293 292 292 292 291 291 291 291 290 290 289 289 289 288 288 288 288 288 288 288 287 288 288 290 289 289 289 288 289 289 289 289 289 289 288 288 288 285 285 284 286 287 285 285 285 283 284 284 284 283 282 282 283 283 282 283 283 284 282 282 283 284 284 285 286 287 288 288 288 288 288 289 289 289 289 290 291 291
293 293 293 293 293 293 293 292 292 292 292 291 291 290 290 289 289 289 288 288 287 287 287 287 287 287 287 287 287 287 288 287 288 287 288 287 287 287 287 288 287 287 288 286 285 286 282 283 284 284 283 284 282 284 283 283 283 283 282 282 283 283 282 283 283 284 282 282 283 284 285 286 287 288 288 287 287 288 288 289 289 289 289 290 290
292 292 292 292 292 292 292 292 292 291 291 291 290 289 289 289 288 288 288 287 287 286 286 286 286 286 286 286 286 286 287 286 286 287 287 286 286 286 286 287 286 286 286 287 285 284 283 281 283 282 282 282 282 282 283 283 283 283 281 282 282 282 283 283 283 284 283 283 284 285 285 286 286 286 286 287 287 287 288 288 288 288 289 289 289
290 291 291 291 291 291 291 291 290 290 290 290 290 289 289 288 288 287 287 287 286 286 286 286 286 286 285 285 285 285 285 284 285 285 285 285 285 284 285 285 285 285 286 286 286 285 284 281 281 281 282 281 281 283 282 282 281 281 281 282 283 282 282 283 282 283 283 283 284 284 285 285 285 285 285 286 286 287 287 287 288 288 288 288 288
290 290 290 290 290 290 290 289 289 289 289 289 289 289 289 288 288 287 287 287 286 286 286 286 286 285 285 284 285 285 284 283 284 284 284 283 283 283 283 284 284 285 284 284 284 285 284 282 281 281 282 281 282 281 281 279 280 280 281 281 281 282 282 283 283 283 283 283 283 283 283 283 284 284 285 285 286 286 286 287 287 287 287 287 287
289 289 289 289 289 288 288 289 289 289 289 288 288 288 288 288 287 287 287 287 286 286 286 284 284 284 284 284 284 284 283 283 283 283 283 282 282 282 282 282 283 283 283 283 283 283 283 283 281 279 280 279 279 279 280 280 280 279 280 280 281 281 281 281 282 283 283 283 283 283 282 282 283 283 284 284 285 285 286 286 286 286 286 285 285
288 288 289 289 289 288 287 288 288 288 288 288 288 287 287 287 286 285 286 286 286 286 286 285 285 284 284 283 283 283 283 283 283 283 282 281 282 282 282 282 282 282 282 282 282 282 282 282 281 280 279 279 279 278 279 280 281 281 280 280 279 281 282 281 282 283 282 282 282 282 283 283 283 283 283 283 284 285 285 285 285 285 284 284 284
287 288 288 288 288 288 287 287 287 288 288 288 288 288 287 287 286 286 285 285 285 285 285 285 285 284 284 283 283 283 283 283 283 282 282 281 282 282 283 282 282 281 282 282 282 281 281 281 280 279 279 278 278 280 281 279 278 279 280 281 280 281 280 281 281 281 282 282 282 282 282 282 282 283 282 283 282 282 283 283 283 282 282 283 283
288 288 288 288 287 287 287 287 287 287 287 287 288 287 287 287 286 286 285 285 285 285 284 284 284 284 284 284 283 283 283 283 284 284 284 284 283 282 282 282 282 281 282 281 281 280 280 280 279 279 278 278 278 278 278 277 277 278 280 280 280 281 281 280 280 281 281 281 282 282 282 283 282 282 281 281 281 281 281 281 281 282 282 283 283
287 287 287 287 287 287 287 287 287 287 286 287 287 287 288 287 287 286 286 285 285 285 284 283 283 283 283 283 283 283 283 283 284 284 285 285 285 284 283 282 282 282 281 281 280 280 280 279 279 278 277 277 278 278 278 279 280 281 280 279 278 280 279 279 280 280 282 281 281 280 281 282 281 280 280 280 281 281 281 281 282 282 282 283 283
286 286 286 286 286 286 286 286 286 287 287 287 287 289 289 289 287 286 285 285 285 285 284 283 283 283 283 283 283 283 283 283 283 284 286 286 285 285 284 284 284 283 281 280 279 280 279 279 279 278 278 277 278 279 279 280 280 280 280 280 279 278 277 277 278 281 282 281 280 280 280 281 280 277 278 278 279 280 280 281 281 282 282 283 283
285 285 285 286 286 286 285 285 285 286 286 287 288 288 289 289 289 286 286 285 285 285 284 283 283 283 283 283 283 283 283 283 283 283 284 285 285 285 285 284 284 284 285 282 280 278 278 278 278 278 279 278 279 279 279 280 279 279 280 279 279 278 277 277 278 279 281 281 279 279 278 280 279 277 277 278 279 280 280 281 282 282 283 283 283
285 284 285 285 285 286 285 285 284 285 285 287 288 288 289 289 289 288 286 285 285 285 284 284 283 283 283 283 282 282 283 283 283 282 282 283 284 285 284 284 283 284 284 284 283 282 280 279 279 278 279 279 278 279 280 279 281 278 279 277 278 278 278 278 278 279 280 281 278 276 275 277 278 276 276 278 279 280 280 281 282 282 283 283 283
284 284 284 284 284 284 285 285 285 285 285 286 287 287 288 288 289 288 286 285 285 285 285 284 283 283 283 282 282 282 282 282 283 282 282 282 282 283 282 282 281 281 283 283 283 281 280 280 280 279 280 280 279 279 280 281 280 278 277 276 277 277 277 277 279 280 280 280 276 276 273 275 277 276 275 277 279 279 279 280 281 282 282 282 282
283 283 283 283 283 283 284 284 284 284 284 286 286 287 287 288 288 288 286 286 285 285 285 284 283 283 283 283 282 282 282 282 282 282 281 281 281 281 280 280 280 280 281 281 280 280 278 278 279 280 280 280 280 281 281 281 280 279 279 278 278 278 278 279 279 279 278 279 277 275 270 275 277 276 276 277 278 278 279 280 280 281 282 282 282
283 283 283 284 283 283 284 284 283 283 284 285 286 286 286 287 287 286 286 286 285 285 285 285 283 283 283 282 281 281 281 281 282 283 282 282 280 280 279 279 279 279 280 281 282 281 280 279 279 280 279 280 281 281 281 280 279 279 279 278 277 275 274 274 273 275 274 277 277 274 272 273 276 275 275 277 277 276 277 278 280 281 281 282 282
281 281 282 282 283 283 282 283 282 282 283 285 285 285 286 286 286 285 286 286 285 285 285 285 284 283 282 281 281 281 280 280 282 284 284 282 280 279 279 278 278 278 278 280 282 282 281 281 281 282 282 282 282 283 283 282 279 279 277 274 273 274 273 272 272 273 273 275 275 275 273 271 274 274 274 275 276 276 276 277 278 279 281 281 281
279 280 281 281 281 282 282 282 282 282 282 283 285 285 285 286 285 285 285 285 285 285 285 285 284 283 282 282 282 281 280 280 282 284 284 282 279 279 278 277 276 276 277 279 280 280 282 281 281 282 282 282 282 282 282 282 281 280 275 273 274 274 272 272 271 272 273 274 274 275 271 271 274 275 273 274 274 274 275 276 277 278 279 280 280
277 278 279 280 281 281 282 282 282 282 282 283 284 284 285 285 285 285 284 284 284 284 285 284 284 283 282 282 282 281 280 280 283 284 284 283 279 278 278 277 276 275 277 279 278 278 278 278 278 279 280 281 281 280 280 281 281 280 277 275 274 273 272 272 271 271 269 271 274 275 270 271 273 273 273 270 269 273 275 276 276 277 277 277 276
Wind_Speed
10 10 9 10 9 8 7 8 7 6 6 6 6 6 5 5 5 5 5 4 4 3 3 3 2 2 2 2 1 2 2 1 1 1 1 1 1 4 8 7 6 3 2 2 2 3 4 5 5 6 6 6 7 5 4 4 5 8 7 7 6 8 10 8 8 8 8 9 9 9 9 9 9 9 10 11 11 11 12 12 12 12 13 14 14
10 10 10 11 9 8 8 7 7 6 6 6 6 6 6 5 5 5 5 5 4 3 3 3 2 2 2 2 1 1 1 1 1 1 1 1 2 3 6 8 8 4 4 3 3 3 3 4 4 5 4 6 6 4 4 5 7 7 7 7 6 7 8 7 7 7 8 8 8 8 8 8 8 9 10 11 11 11 11 12 12 12 13 13 13
10 11 10 9 8 8 9 7 7 7 7 6 6 5 5 5 6 6 5 5 4 4 3 3 3 2 2 2 1 1 1 1 1 1 1 1 2 3 3 7 10 10 4 6 6 5 5 4 4 4 3 5 5 5 3 4 6 6 5 6 5 6 8 7 7 7 8 8 8 7 7 7 8 9 9 10 10 11 11 12 12 12 12 13 13
11 10 11 10 9 9 9 8 8 7 7 6 6 5 5 4 5 4 5 4 4 4 3 3 3 3 2 2 2 2 2 2 2 2 1 2 2 3 3 4 8 11 11 7 8 8 7 7 6 5 4 5 5 4 3 4 4 4 4 5 5 6 8 7 7 7 6 7 7 7 7 8 8 8 9 10 10 11 11 11 11 11 12 12 12
10 11 10 9 9 9 8 8 8 7 7 7 7 5 5 5 4 4 4 4 4 4 2 2 3 3 2 2 2 2 2 2 2 2 3 3 2 3 4 4 5 9 13 13 10 8 8 8 7 7 5 4 4 4 4 4 4 4 4 4 5 5 6 7 6 5 6 6 6 6 7 8 8 8 8 9 9 9 9 9 10 11 11 11 12
10 10 10 9 9 9 9 8 7 8 6 7 7 6 6 6 6 5 5 5 5 4 4 4 3 3 2 2 2 2 2 2 2 3 3 3 3 3 4 4 4 4 6 12 14 11 9 8 8 8 7 5 4 3 4 5 4 3 4 5 5 5 5 5 4 5 6 5 6 6 6 7 7 7 7 7 8 8 8 9 10 10 11 11 11
10 10 11 10 10 10 9 8 7 8 7 7 7 7 6 7 7 7 6 5 5 4 4 4 4 4 3 3 2 2 2 2 3 3 3 3 3 3 4 4 4 4 4 4 7 12 11 10 10 9 8 7 5 4 4 4 3 4 4 4 5 5 4 4 5 4 5 5 6 6 6 6 6 7 7 7 8 8 9 9 10 11 11 11 12
10 10 10 10 9 10 9 8 9 8 7 7 7 7 7 6 6 7 7 6 6 5 4 4 4 3 3 2 2 3 3 3 3 3 3 3 4 4 4 4 3 3 3 3 4 6 10 10 11 11 10 8 8 7 3 2 3 3 4 5 4 4 4 5 5 5 5 5 5 5 6 6 6 7 7 8 8 9 9 10 10 11 11 11 12
11 11 9 9 9 9 9 9 9 8 8 7 7 7 7 6 6 6 6 7 7 7 5 4 3 3 2 2 2 3 3 3 3 3 2 3 4 4 3 4 4 4 3 3 4 4 6 9 11 12 12 9 8 8 6 2 3 4 3 5 5 4 5 5 5 6 6 5 5 6 6 6 6 6 7 7 8 9 9 10 10 11 11 11 11
11 11 9 9 9 8 8 9 9 8 7 8 8 6 7 7 7 6 6 7 7 7 7 4 4 3 3 2 2 2 2 3 3 3 3 4 3 4 4 4 4 3 3 3 3 3 4 5 7 10 12 10 8 8 8 6 3 3 4 4 5 6 6 6 6 6 6 5 6 6 6 6 6 7 7 8 9 9 9 10 10 11 11 12 12
12 11 10 9 9 8 7 10 9 8 8 8 7 7 7 7 8 7 4 5 6 6 6 5 5 3 3 3 2 1 1 2 3 3 3 3 3 3 3 3 3 3 3 3 2 3 2 3 3 3 5 10 9 8 8 8 4 2 4 5 6 6 6 7 6 6 6 6 6 7 7 7 7 8 9 9 10 10 10 10 10 10 11 11 11
12 12 12 10 10 9 9 9 10 9 9 9 9 9 10 10 9 9 8 4 1 5 6 7 6 5 4 3 2 2 2 2 2 2 3 3 4 3 3 3 3 3 2 2 2 2 2 2 3 3 4 6 8 7 9 11 8 4 4 5 6 6 6 6 6 6 6 6 7 7 7 7 7 8 8 9 9 9 9 9 9 9 9 9 9
12 12 12 11 10 9 9 9 9 9 9 10 10 10 9 9 8 7 9 8 6 5 7 7 8 5 4 3 3 2 2 1 3 3 3 3 3 3 3 3 3 3 2 1 2 1 2 2 2 2 3 3 5 7 8 9 13 7 4 4 5 6 6 5 6 7 7 7 7 7 7 7 8 8 8 9 9 9 9 9 9 9 10 10 10
11 12 11 12 11 9 9 10 10 9 9 7 8 8 9 9 8 7 7 9 7 8 8 9 7 7 7 5 3 3 3 2 3 4 4 4 4 4 4 4 3 3 2 2 2 2 1 1 1 2 2 2 3 3 3 3 7 14 9 6 4 5 5 5 6 6 6 7 6 6 6 8 8 8 9 9 10 10 9 9 9 9 10 10 10
11 11 11 11 11 10 10 10 11 10 9 9 9 10 10 11 12 10 9 7 6 7 10 11 7 7 6 6 5 5 4 4 5 5 5 4 4 4 4 4 4 3 3 3 3 3 2 1 1 1 2 2 3 4 5 6 5 8 13 17 14 7 5 4 5 6 6 6 6 6 7 7 8 8 8 9 9 9 9 9 9 10 10 10 10
12 12 10 11 12 11 10 10 12 11 11 11 11 11 10 10 11 10 10 9 7 9 9 9 4 10 7 6 5 5 3 8 8 7 6 5 5 5 5 4 5 4 3 3 3 3 3 2 3 2 2 2 3 3 4 5 4 7 11 13 12 10 6 6 6 6 6 6 6 7 7 8 7 7 8 9 9 9 9 9 9 9 10 10 10
12 13 12 13 12 11 12 11 12 11 11 10 11 12 12 11 12 11 13 12 11 9 10 9 8 5 3 5 2 3 6 4 9 6 7 6 7 6 6 6 6 5 4 3 3 3 3 3 3 3 3 3 3 4 5 5 5 6 8 8 9 10 9 7 6 6 6 6 6 6 6 7 7 8 9 9 9 9 9 9 9 9 10 10 11
11 13 13 12 12 12 11 11 11 11 11 11 10 9 11 12 13 12 13 12 10 9 10 8 7 6 6 4 2 2 3 6 7 4 6 6 6 7 6 7 6 5 4 4 4 3 3 3 3 3 3 4 4 4 5 4 4 3 4 6 9 10 10 9 8 7 6 6 7 7 7 7 8 9 9 9 9 9 8 8 9 9 10 10 10
11 11 12 12 11 12 12 11 11 11 10 10 10 12 11 12 11 12 11 11 10 10 11 11 7 6 5 4 3 2 3 7 6 5 4 5 6 7 7 7 6 6 5 5 4 4 3 3 4 4 4 4 4 4 4 5 5 7 8 7 9 10 10 10 9 9 7 7 7 7 7 7 8 8 8 9 9 9 9 9 9 10 10 10 10
10 10 11 11 11 11 11 11 11 11 10 11 11 10 9 8 10 12 9 11 11 11 11 11 13 10 8 6 4 1 3 4 3 6 4 5 6 6 6 8 7 7 7 6 5 5 4 4 4 4 5 4 5 4 5 6 6 6 5 7 9 10 11 11 10 9 8 7 7 7 7 7 7 8 8 9 9 9 9 9 9 10 10 10 10
11 11 12 12 11 11 11 11 11 11 9 10 10 10 12 13 12 11 11 11 11 11 10 10 11 10 9 6 5 5 3 2 2 2 6 7 5 8 8 6 6 7 7 7 5 4 5 4 4 4 4 5 4 5 5 5 5 5 5 7 9 10 11 11 10 9 8 8 7 7 7 7 8 8 9 8 8 9 9 9 9 9 10 11 11
11 12 12 13 13 12 11 13 12 10 9 11 10 10 11 11 12 13 12 12 10 10 11 9 10 8 10 8 8 6 4 4 5 5 2 3 6 6 8 9 8 8 8 7 7 6 5 5 5 5 5 5 5 5 4 5 4 5 6 7 8 9 10 11 10 9 8 8 8 8 8 8 9 9 9 9 8 9 9 9 9 10 10 10 11
10 10 12 13 13 13 12 13 12 11 11 12 12 12 11 11 11 12 12 14 11 11 9 7 8 8 10 9 10 11 10 9 9 8 8 6 4 4 5 7 6 7 7 7 6 6 5 4 5 6 6 6 6 5 5 5 5 7 8 7 8 8 10 10 10 8 7 7 7 7 7 8 8 9 8 9 9 9 9 9 9 9 10 10 10
9 10 11 12 11 11 11 12 12 13 13 13 12 12 11 11 11 12 12 13 11 10 11 10 10 8 10 9 10 10 10 9 8 9 9 8 8 7 6 4 1 2 5 5 4 5 5 5 5 6 6 5 6 5 5 5 5 8 4 7 8 8 9 10 9 7 6 7 7 7 7 8 8 8 9 9 9 8 9 9 9 9 9 10 10
10 11 11 14 12 12 12 13 12 12 12 12 12 13 12 12 12 13 13 14 14 14 11 13 12 11 10 10 9 10 10 8 7 8 8 6 7 7 4 5 5 5 4 4 5 5 4 5 5 5 5 5 5 5 5 5 5 6 3 6 7 7 8 8 8 6 6 6 7 7 7 8 8 8 8 8 8 9 8 8 9 10 10 10 11
9 11 11 12 11 13 12 12 12 12 12 12 12 12 12 12 12 13 14 13 11 13 13 11 10 10 7 8 9 8 9 6 6 6 7 7 7 9 5 3 1 4 4 4 3 4 5 5 5 5 5 6 5 5 5 5 5 7 4 2 4 4 6 7 7 6 6 6 7 7 6 7 8 7 8 8 8 8 8 9 9 9 10 10 11
9 8 9 10 12 12 12 12 12 12 11 10 9 10 10 10 10 12 11 10 11 12 12 12 10 11 11 10 8 8 8 6 6 7 7 8 8 9 8 7 4 3 5 5 4 8 4 6 6 6 6 6 6 6 6 5 6 9 4 2 1 2 3 5 6 5 6 6 6 6 6 6 7 7 7 7 8 8 8 9 9 10 11 11 11
7 7 8 9 11 12 12 12 13 12 11 12 11 10 10 11 9 8 10 6 9 12 11 11 12 12 12 10 8 10 8 7 8 7 7 8 7 7 8 9 8 5 6 6 6 7 8 7 5 7 7 7 7 6 7 7 6 9 5 3 2 2 2 4 6 6 6 6 5 5 5 5 6 6 6 6 7 7 8 8 9 10 10 10 11
7 6 7 9 9 10 11 12 12 12 13 12 11 11 10 11 11 11 12 10 11 12 11 11 12 11 11 12 11 9 9 7 7 7 6 6 7 6 8 9 9 9 5 8 9 8 8 10 7 8 8 8 7 7 7 7 7 7 4 4 3 3 2 5 7 7 7 6 5 5 5 5 6 6 6 7 7 8 8 8 9 9 10 11 11
6 4 7 8 10 11 11 11 11 11 12 11 12 12 11 11 12 12 12 10 12 10 11 12 12 11 11 10 10 9 8 7 8 8 7 8 7 7 8 8 8 10 8 7 7 9 6 9 7 6 8 8 7 6 6 6 9 6 5 4 3 4 3 6 7 7 7 7 6 6 6 6 6 6 7 7 7 8 9 9 9 10 11 12 13
7 7 8 8 9 9 11 11 10 11 12 12 11 11 12 12 12 12 11 11 11 12 11 10 10 10 11 12 10 10 8 9 8 7 7 7 7 7 7 6 6 8 9 7 6 5 6 9 9 6 9 9 7 6 5 5 7 7 5 5 5 4 4 7 8 8 8 7 7 7 6 7 7 7 6 7 8 9 9 9 10 10 11 12 12
7 8 8 9 9 10 10 11 11 11 12 12 11 12 11 12 11 11 12 13 14 14 12 10 8 10 11 13 12 11 8 8 8 8 8 7 7 7 7 7 6 6 6 6 9 5 5 6 8 7 9 9 8 8 7 6 5 8 6 6 5 5 6 6 8 9 8 8 8 7 7 7 8 7 7 7 8 8 9 9 10 10 10 10 11
8 8 9 10 10 10 10 10 11 11 12 12 11 11 12 13 12 12 12 13 15 13 12 12 11 11 13 13 13 12 8 10 9 9 8 8 8 7 7 7 7 7 7 8 9 5 3 2 5 7 9 10 8 9 9 8 7 7 7 6 6 6 6 5 5 8 9 9 9 9 9 9 8 7 7 7 8 9 9 9 10 9 9 10 10
8 8 9 9 9 10 10 10 11 11 11 12 12 11 13 13 14 10 12 13 14 14 12 14 13 11 13 13 13 11 10 11 9 9 9 9 9 9 9 9 9 9 8 9 9 7 8 6 5 6 7 9 8 10 10 9 8 7 7 6 6 6 6 5 5 5 10 10 10 11 10 9 8 8 7 7 8 9 9 10 10 10 10 10 11
9 8 9 10 10 10 10 10 10 11 12 12 11 12 13 14 14 12 11 13 14 14 15 15 14 12 13 14 14 11 7 11 11 10 8 9 8 9 10 9 10 9 9 9 8 8 9 8 8 8 8 9 9 10 10 7 6 6 7 7 7 6 5 6 5 5 8 11 11 11 10 9 9 8 8 8 8 9 10 10 10 10 11 11 11
10 10 9 10 10 11 11 10 9 10 11 11 11 12 14 14 14 14 13 14 14 14 14 14 13 13 15 14 14 13 10 12 12 11 9 8 8 8 8 8 9 9 9 9 8 7 7 9 9 9 9 9 9 7 7 6 6 7 7 7 7 7 6 6 6 6 7 11 11 11 10 10 9 9 9 9 9 9 10 10 10 11 11 11 11
9 9 10 9 10 10 9 9 9 10 11 11 11 12 12 13 14 14 14 14 14 14 13 13 14 11 12 14 14 11 11 12 12 11 11 12 8 7 7 7 8 7 6 8 8 6 7 9 8 8 8 7 7 8 8 8 8 8 8 8 8 8 7 7 6 6 8 11 12 11 10 10 10 10 10 10 10 10 10 11 12 12 12 12 11
9 9 10 9 9 10 10 11 11 11 10 9 10 11 12 11 11 12 12 13 13 13 13 9 13 12 11 12 10 13 12 13 13 12 11 13 7 7 8 7 7 7 8 8 7 7 6 8 10 10 9 10 9 8 10 10 9 9 9 8 7 7 7 7 7 6 6 6 6 7 8 9 10 10 10 9 10 11 12 13 13 13 12 12 12
8 9 9 10 9 9 9 9 10 10 11 11 11 10 10 10 9 10 12 13 13 12 13 14 11 14 17 18 15 17 17 14 12 11 9 9 8 10 9 8 8 8 9 9 9 10 8 8 8 9 9 8 9 9 9 10 8 8 8 9 8 8 8 7 7 6 6 6 8 9 7 5 6 6 8 10 11 12 13 13 13 13 12 12 13
8 8 9 10 10 8 8 9 10 9 10 11 11 12 13 13 12 11 12 13 13 12 12 13 13 13 15 15 11 15 13 10 11 6 12 10 8 10 10 8 9 9 9 9 9 8 8 8 8 10 9 9 8 6 7 9 8 8 8 8 8 9 9 8 7 6 6 6 5 5 7 7 8 9 9 9 10 10 10 11 12 11 12 13 14
8 9 9 9 10 10 9 9 10 9 9 10 9 9 10 12 11 11 10 14 13 12 12 11 11 12 13 14 13 11 18 21 23 20 20 18 8 9 9 10 11 8 7 7 8 8 7 8 7 8 9 9 9 10 10 11 12 10 9 8 6 5 5 5 6 7 6 6 5 5 5 4 3 3 4 5 4 5 7 9 10 11 11 11 12
9 9 9 9 9 10 10 10 10 9 9 7 11 16 15 11 10 9 12 14 14 10 10 10 11 13 13 11 13 23 23 22 24 25 24 24 23 11 9 10 11 7 8 8 8 9 9 9 9 9 9 10 11 13 12 11 8 6 8 8 7 6 4 4 4 5 6 6 5 4 4 3 2 4 4 5 4 3 4 4 4 6 10 14 16
8 10 9 10 9 8 9 10 11 10 8 7 14 14 17 19 14 12 8 11 13 12 10 11 12 12 13 14 12 18 20 21 22 25 14 14 14 14 13 8 7 17 17 10 7 9 10 9 7 8 9 10 12 11 11 10 9 10 8 8 6 5 4 3 3 3 5 5 3 2 2 1 1 4 5 5 4 4 5 6 9 12 14 15 16
7 6 9 9 9 9 8 9 10 10 10 11 13 15 17 19 18 14 10 10 13 9 13 12 11 11 12 12 12 11 13 16 13 14 17 19 17 19 16 11 10 11 17 13 12 10 8 7 8 10 8 9 10 11 11 11 11 10 9 8 8 7 6 4 3 1 3 3 1 1 3 2 2 4 7 5 4 5 6 9 13 14 16 17 18
8 8 9 9 9 9 9 9 9 9 10 13 14 16 17 19 20 18 12 13 13 12 11 12 12 12 10 9 10 9 10 20 16 13 13 13 17 19 19 16 14 19 20 18 12 4 6 10 11 10 11 10 10 10 11 11 10 10 10 8 8 7 6 4 4 2 2 4 2 2 5 6 4 5 7 7 5 5 7 10 13 15 17 18 19
8 9 9 9 8 8 8 9 10 9 10 11 16 18 18 19 20 18 13 14 14 14 13 11 15 16 16 12 9 10 8 12 13 14 13 12 11 11 13 10 10 14 19 20 20 15 7 8 6 9 9 7 6 8 9 10 11 10 10 8 8 7 6 5 3 2 2 2 2 1 4 6 4 5 7 7 5 6 8 11 14 15 16 19 20
9 9 9 9 9 8 8 8 9 9 9 14 16 18 19 20 21 19 13 13 13 14 13 10 14 17 16 15 11 11 10 12 12 14 12 11 13 15 15 14 12 12 13 14 13 12 9 8 8 6 6 7 6 8 10 9 8 7 7 7 7 6 4 3 3 4 4 3 3 3 4 3 3 5 7 6 6 8 8 11 15 16 19 21 23
9 9 8 8 9 10 9 8 9 10 9 13 16 18 19 20 22 13 12 12 13 15 13 12 10 11 12 13 9 11 8 10 16 21 16 11 15 16 18 15 10 10 12 13 14 13 11 10 8 7 7 8 9 9 10 10 8 7 8 7 6 6 6 5 6 5 5 5 7 7 5 5 5 6 7 6 6 8 9 9 13 17 19 22 23
11 10 10 9 9 9 11 9 10 11 11 11 14 17 18 19 16 11 12 12 13 13 12 11 10 11 10 10 9 9 8 10 17 24 23 17 15 17 17 16 12 8 10 10 16 18 16 15 13 14 15 15 14 15 16 17 11 10 9 9 7 8 8 7 6 6 6 5 6 7 4 5 5 6 6 7 7 9 9 10 9 13 19 21 22
12 12 11 11 11 9 9 10 9 10 12 12 14 16 18 19 16 12 12 13 15 14 12 9 9 9 13 21 17 12 11 11 18 25 25 20 17 17 16 15 15 11 10 9 9 11 17 16 15 16 16 16 17 17 17 17 17 13 10 10 11 9 7 8 7 5 4 4 6 7 5 5 3 4 5 6 8 9 10 10 10 10 15 16 19
12 12 12 11 11 10 10 11 12 12 12 13 16 18 19 19 16 11 12 13 15 16 14 10 9 9 10 15 21 17 12 12 22 25 28 22 16 17 15 14 12 13 13 13 12 11 12 11 12 12 12 16 14 12 13 19 19 15 9 8 8 9 10 9 6 3 3 6 7 9 6 4 4 5 4 3 4 6 6 7 8 8 7 7 10
Wind_Direction
191 189 187 189 187 179 178 180 177 174 173 174 173 171 170 164 158 160 159 156 151 150 138 128 133 110 105 108 105 84 87 91 89 74 87 110 95 52 358 5 359 6 39 84 118 127 130 131 129 117 121 118 95 97 107 120 115 99 86 84 85 79 76 70 68 66 60 54 50 50 48 45 48 50 53 50 48 46 46 44 43 43 42 41 40
190 188 187 187 183 176 179 180 179 175 178 180 179 178 171 165 162 160 158 156 156 142 149 132 115 107 101 112 101 111 99 100 104 127 111 97 92 105 26 3 3 32 41 68 72 101 117 131 122 117 133 126 104 106 128 141 119 90 87 86 86 87 79 68 67 68 62 56 53 51 49 49 49 52 54 52 50 50 48 45 44 43 41 40 39
190 187 186 185 181 178 185 178 181 179 182 181 175 180 170 169 167 164 163 160 149 144 156 141 136 128 115 129 129 130 125 121 129 117 118 106 107 100 86 28 12 8 52 64 69 69 75 89 107 112 121 111 114 114 148 136 102 106 89 86 80 85 82 68 66 64 60 59 53 49 53 50 48 50 51 51 49 49 46 44 42 40 39 38 37
188 183 186 184 183 182 184 181 187 178 183 178 171 173 167 151 145 145 145 148 140 146 149 155 150 141 137 136 149 153 153 148 147 143 121 109 124 127 126 98 45 24 23 72 67 66 66 66 59 55 69 86 104 118 103 98 118 109 93 85 88 86 80 72 68 61 60 59 58 53 53 55 53 48 48 48 47 45 46 43 42 39 37 37 35
187 182 182 183 181 180 184 186 186 178 178 168 161 158 153 147 143 144 143 141 143 140 138 153 146 141 153 148 156 158 152 162 148 148 139 143 134 132 131 129 108 65 41 38 54 61 61 61 61 59 66 81 90 100 116 111 116 115 97 86 88 83 88 76 68 66 62 56 57 55 52 51 49 47 42 42 45 45 46 43 40 38 37 35 34
186 181 182 183 182 185 186 185 184 171 167 162 170 171 167 160 154 160 157 163 159 155 165 166 154 148 156 154 173 161 163 162 152 143 153 147 144 134 136 142 141 117 83 54 35 38 53 56 61 63 57 62 85 102 112 99 110 111 108 101 95 82 72 69 67 56 56 59 57 51 50 48 44 42 41 41 41 40 43 41 39 38 36 34 33
185 179 185 187 184 186 187 185 174 168 172 177 175 173 169 165 162 165 159 166 162 158 173 170 162 162 157 166 162 157 168 149 146 146 157 149 151 142 140 138 137 132 130 113 66 33 35 43 50 55 60 62 72 77 77 102 125 126 110 100 80 78 76 64 62 68 65 60 54 54 50 46 45 44 43 42 38 39 38 37 37 35 33 32 29
185 184 186 190 187 187 185 178 166 173 178 173 177 173 168 164 168 167 161 170 164 167 178 167 161 152 150 157 147 171 163 156 152 158 154 165 154 149 145 134 139 120 117 115 103 60 35 44 47 49 50 52 51 45 74 96 106 87 95 88 96 92 80 75 75 69 69 63 56 54 49 46 44 46 40 39 37 34 32 31 31 31 29 28 26
189 189 191 188 188 187 182 172 168 178 176 173 179 175 165 162 165 175 175 165 171 168 173 167 148 133 133 137 150 174 164 157 161 152 165 165 153 148 135 121 111 129 133 117 124 119 64 54 54 45 38 46 47 45 45 79 109 113 114 115 112 98 91 90 81 73 69 62 59 55 54 49 44 38 36 33 31 31 30 29 29 25 24 25 22
189 189 196 191 190 187 177 166 171 179 174 174 180 169 169 171 163 171 172 167 176 174 172 154 128 134 129 131 152 174 145 150 145 159 171 158 157 151 143 140 138 130 121 122 123 124 126 93 79 63 40 39 50 48 38 36 76 132 127 121 111 99 90 83 78 71 65 65 63 60 52 46 41 35 34 30 29 26 24 24 21 21 19 17 15
186 187 194 189 190 187 175 170 175 178 173 175 172 168 170 178 168 161 165 175 178 176 166 138 125 115 117 116 118 113 132 132 158 180 161 157 144 136 139 141 129 122 120 125 118 121 127 141 135 112 69 43 47 46 40 42 62 67 126 124 116 101 92 81 72 67 62 63 60 48 48 40 38 35 29 25 22 19 19 15 14 12 11 9 8
186 187 193 190 190 189 179 170 180 178 177 180 178 180 178 170 171 163 163 155 164 151 138 136 123 111 106 99 90 87 108 152 176 166 163 149 152 163 152 138 135 115 107 113 113 110 123 127 123 121 112 78 57 48 40 27 19 48 115 127 111 103 94 87 76 63 51 47 47 40 36 34 30 25 24 19 17 17 14 13 12 10 6 6 3
187 186 194 192 193 184 174 173 180 184 187 191 183 176 172 168 159 161 164 167 177 165 156 147 139 127 118 121 118 106 109 160 174 173 173 168 169 175 158 156 140 139 139 108 103 105 120 119 120 116 111 124 107 75 52 36 15 11 80 103 103 96 86 81 74 57 42 37 38 36 33 28 23 22 18 13 11 10 9 8 6 4 0 1 358
188 191 193 192 190 179 176 176 183 189 193 188 173 159 158 165 159 159 179 178 176 175 167 164 181 176 160 157 153 158 166 193 188 177 181 179 182 173 172 163 153 149 149 136 119 116 94 104 94 97 99 105 106 112 101 73 37 17 35 51 95 86 76 61 54 52 46 35 26 35 29 19 18 15 15 9 7 6 3 4 2 0 359 353 353
190 193 195 194 188 180 183 180 185 184 184 184 177 174 177 173 173 173 167 186 181 176 183 202 187 179 163 147 178 174 179 212 204 200 187 183 188 180 178 160 156 168 162 155 150 132 118 98 111 100 103 111 118 116 100 82 50 26 44 43 43 59 62 64 51 42 39 35 28 24 21 17 13 12 10 10 6 2 2 358 1 359 354 353 354
194 193 194 193 190 187 181 183 187 187 189 185 183 184 176 178 179 183 169 169 186 187 203 209 226 154 177 218 170 203 190 208 193 190 187 187 198 189 181 173 163 169 173 166 154 146 142 143 145 150 137 135 133 127 116 108 100 76 56 52 48 43 63 57 49 39 27 27 23 17 19 20 14 13 13 8 5 0 360 356 358 356 352 352 353
196 195 197 197 194 189 186 187 186 188 190 189 186 188 182 183 179 178 183 183 183 182 198 208 229 264 229 145 144 213 237 116 163 178 178 196 206 201 186 186 181 185 182 164 158 149 146 153 157 150 160 152 150 141 134 140 133 113 91 70 62 54 48 50 46 35 31 27 24 18 20 23 15 14 10 5 2 1 356 355 357 356 355 353 352
203 199 198 198 197 194 190 186 188 188 193 195 186 179 183 182 185 187 190 197 180 173 186 206 226 237 263 315 343 267 175 143 170 187 170 210 199 199 198 198 199 195 197 177 176 171 161 156 169 165 172 174 161 158 148 141 140 127 100 74 65 57 50 41 36 37 31 29 24 20 16 16 13 11 7 360 357 356 353 354 354 355 354 353 353
208 204 201 201 200 196 194 193 191 192 191 192 189 189 186 187 181 192 195 190 189 189 184 188 199 249 239 245 270 224 287 145 201 127 178 184 212 201 206 203 203 210 206 201 183 189 170 176 168 176 175 181 171 167 157 127 92 90 78 77 60 49 42 39 34 30 31 27 25 18 16 12 9 4 359 355 356 352 355 356 355 354 353 352 350
208 207 206 204 203 202 199 197 195 195 189 198 196 188 182 185 188 193 192 196 198 198 190 181 186 203 196 214 234 243 261 295 291 215 242 179 183 201 215 198 208 214 216 207 197 200 188 180 175 177 183 177 182 174 160 152 150 138 108 74 60 45 37 31 28 27 26 22 20 14 10 7 1 360 356 353 352 353 353 353 353 352 350 350 351
205 205 205 207 205 206 201 200 199 198 192 200 201 189 187 182 183 189 196 198 202 208 202 191 193 194 162 202 202 204 198 258 279 265 234 234 197 177 188 187 214 221 214 207 199 188 191 183 173 182 184 177 180 179 169 164 158 130 100 74 57 42 31 24 22 22 15 10 13 8 1 2 357 356 352 351 351 350 349 348 348 349 348 349 350
202 204 202 205 207 205 204 202 202 200 194 202 200 191 191 190 189 193 195 198 202 206 212 201 193 200 181 170 182 176 198 207 217 202 268 251 250 188 178 175 197 207 195 195 188 184 187 181 180 183 185 181 180 178 179 169 158 135 98 75 61 43 28 20 19 17 7 5 6 1 356 355 353 350 348 347 349 349 350 348 348 347 347 347 348
199 204 206 204 206 205 204 202 202 199 195 200 203 198 196 193 191 193 197 201 202 202 213 218 193 199 183 188 191 184 188 192 193 195 200 196 215 208 180 194 204 165 188 181 174 184 177 181 188 181 186 178 181 177 178 160 125 101 88 73 62 39 23 15 13 10 2 0 358 353 349 350 348 343 345 344 346 348 348 345 342 346 347 346 347
198 204 206 203 205 206 206 205 204 204 203 203 203 198 196 193 191 195 201 204 206 199 207 208 198 205 194 200 202 198 205 201 193 187 195 207 200 215 188 157 228 175 124 169 182 185 191 191 190 185 183 180 181 181 164 161 124 124 127 73 56 36 17 7 3 2 352 351 347 344 342 344 344 339 342 341 340 342 342 342 340 342 344 344 344
207 207 206 199 198 201 202 206 209 209 208 203 204 198 194 193 195 195 199 197 202 199 200 206 198 200 198 204 206 206 210 209 196 188 200 207 197 218 148 161 192 168 151 170 180 190 201 195 182 187 180 185 171 177 170 169 151 134 147 98 56 35 11 359 352 349 344 339 338 336 338 338 339 334 336 335 335 336 337 339 339 339 342 344 344
211 211 208 198 198 205 207 209 212 213 209 207 204 199 194 197 198 199 200 203 200 200 206 204 202 204 199 198 206 213 213 206 198 189 190 184 197 210 166 162 164 155 135 185 171 182 186 191 179 179 182 180 175 176 176 160 139 124 82 91 94 38 360 345 338 336 335 328 330 330 332 334 329 330 329 329 331 331 332 335 335 337 338 339 340
218 218 205 199 201 203 207 208 208 211 208 207 207 206 204 207 209 207 205 202 201 200 208 203 204 199 205 208 205 211 214 200 194 205 195 193 193 193 171 173 192 199 177 179 177 216 177 169 175 183 185 179 180 178 173 175 125 128 163 169 168 137 320 326 323 320 317 317 318 321 326 321 316 319 322 323 323 327 328 329 331 335 337 336 336
226 215 206 201 203 206 206 207 206 206 207 207 207 208 205 209 215 213 213 200 206 204 211 207 212 203 207 206 207 214 208 197 201 206 199 197 196 186 184 189 192 200 193 201 198 215 184 170 176 193 182 181 179 177 164 158 159 147 169 203 214 227 234 304 304 303 300 301 302 314 311 303 304 306 310 310 313 318 319 322 328 331 329 329 328
232 209 209 207 210 210 213 214 213 210 209 205 203 205 204 208 214 213 214 207 209 211 209 212 214 206 211 203 211 212 207 195 201 207 201 196 200 192 191 196 202 220 186 209 205 196 185 196 183 190 189 185 177 172 168 191 160 170 186 189 210 252 258 292 294 294 293 292 303 300 293 289 288 292 295 300 307 307 310 317 323 325 326 328 331
232 213 213 213 211 210 215 215 214 212 211 208 203 202 200 209 213 216 216 208 209 214 212 212 210 203 207 204 208 217 202 189 203 202 200 199 195 192 197 204 208 215 215 208 211 186 170 189 202 169 183 185 179 175 175 191 141 177 187 208 215 239 263 279 282 280 278 282 284 279 275 277 278 277 286 296 303 305 312 319 324 328 331 333 335
238 232 221 219 215 211 211 215 212 213 212 214 210 210 206 211 210 214 211 206 210 215 215 208 214 204 205 206 205 216 202 196 198 199 204 198 197 189 196 197 203 215 220 220 228 170 168 178 194 180 169 178 175 168 171 188 158 187 195 210 220 201 243 257 252 258 261 264 266 267 266 269 271 275 282 295 300 307 312 319 320 325 330 332 332
238 231 228 223 220 216 213 215 215 213 212 212 209 211 210 218 216 213 211 203 213 216 213 207 205 207 210 212 209 210 199 186 199 200 201 201 194 193 192 189 198 207 209 214 230 185 182 182 171 163 162 168 173 177 181 192 151 178 212 212 210 196 230 230 228 246 258 258 261 262 263 259 263 266 274 284 294 302 307 308 314 319 322 323 325
246 237 233 230 226 222 218 214 214 213 210 210 207 208 212 216 217 218 216 206 208 214 211 210 201 205 212 214 213 208 194 193 202 198 200 196 191 197 187 186 195 193 191 207 213 177 144 160 162 163 162 164 176 186 187 191 188 196 207 217 211 218 221 228 223 226 243 254 256 258 257 256 252 258 269 279 291 296 299 302 305 310 312 315 319
253 244 241 236 230 228 223 219 215 215 214 212 209 207 214 216 217 212 214 211 213 217 208 214 202 201 208 213 215 203 193 202 204 201 198 192 194 194 193 190 196 191 192 194 208 184 167 164 175 154 159 176 179 184 192 193 197 195 201 209 216 219 223 219 227 222 222 239 248 251 255 254 252 257 271 279 283 289 293 297 298 304 307 309 311
276 260 251 243 237 232 230 226 220 219 217 214 210 209 215 217 218 214 207 210 210 211 211 213 202 194 200 210 212 196 174 200 208 206 198 197 195 199 195 191 197 192 187 199 192 196 162 178 176 170 176 182 191 182 191 199 197 197 207 214 215 214 218 224 226 229 218 230 241 249 251 253 255 258 260 265 270 275 280 287 294 297 301 302 305
280 271 256 252 248 241 236 229 222 220 219 220 217 214 216 217 219 220 216 216 216 213 213 213 205 193 200 203 206 193 176 197 205 200 196 195 194 201 195 194 196 193 187 191 208 197 164 158 186 184 180 174 191 186 180 185 191 201 212 219 215 220 220 219 227 233 224 228 242 251 253 252 252 252 252 257 264 269 277 287 292 294 295 298 299
286 277 267 251 249 245 237 231 227 225 225 220 217 218 219 220 222 223 222 221 221 219 217 217 213 201 202 206 201 177 171 193 200 196 190 191 191 188 195 185 191 190 174 190 197 201 172 172 163 181 175 180 181 182 179 182 194 204 208 212 210 213 220 222 223 228 231 234 245 249 247 245 245 246 249 254 262 272 281 288 291 292 294 295 297
304 292 279 265 243 243 240 236 230 229 227 225 223 225 225 221 221 224 226 226 227 223 220 221 221 218 206 205 193 172 180 194 200 188 181 190 168 186 189 180 183 179 179 185 189 193 191 177 163 162 182 176 176 187 188 193 194 191 197 204 208 215 214 218 218 212 208 209 207 212 218 229 227 233 245 257 269 279 285 288 289 291 295 296 295
307 299 292 282 267 249 245 240 236 232 230 228 229 228 226 225 219 221 227 230 232 226 221 222 216 217 221 222 209 209 199 203 195 177 162 158 174 191 184 175 173 174 181 185 187 189 193 178 169 173 169 183 183 184 186 193 208 206 193 184 199 202 208 213 212 197 199 209 217 219 229 242 249 254 259 269 276 283 287 290 291 295 298 296 291
322 306 294 288 281 264 254 251 249 241 240 240 234 230 230 230 230 232 231 236 239 236 230 225 223 219 218 214 199 193 200 203 198 146 154 172 168 184 187 173 174 177 187 183 182 187 187 189 178 176 178 174 183 190 160 177 197 214 211 201 194 183 191 200 208 200 196 204 212 197 202 215 225 232 246 267 275 280 288 293 294 295 292 288 287
322 317 309 299 289 281 267 255 254 250 246 240 235 230 229 227 219 223 224 235 239 239 233 226 223 221 217 216 211 209 214 219 219 216 211 204 172 181 184 167 175 176 178 175 180 184 189 186 183 174 172 179 184 178 182 190 198 201 181 188 209 188 182 199 202 198 203 205 206 203 200 197 218 240 267 277 273 284 283 282 284 281 280 285 293
327 318 316 307 297 291 287 276 260 249 245 244 243 241 236 237 227 219 226 234 238 236 232 228 225 223 220 214 220 221 222 221 221 221 219 213 213 212 177 161 180 167 172 169 178 186 183 186 191 175 178 191 188 191 192 197 191 167 163 182 198 192 186 221 220 201 191 197 205 204 195 178 226 270 269 274 279 276 279 280 279 293 296 295 294
322 322 317 313 305 298 292 289 285 273 255 236 243 236 235 233 236 236 225 228 232 232 228 225 229 224 224 222 221 220 220 222 222 221 214 208 208 210 214 225 206 170 167 170 184 171 183 196 183 184 194 189 190 187 190 181 178 179 178 179 184 179 196 199 211 143 175 188 207 221 229 191 271 292 291 284 285 283 276 271 279 286 288 288 289
318 315 310 303 306 298 289 285 280 277 274 267 253 244 238 235 231 234 236 233 234 231 232 230 229 226 223 220 218 215 208 212 206 209 213 215 208 212 212 207 214 237 209 189 165 171 188 182 184 203 190 193 183 180 185 177 176 175 178 176 181 185 187 202 218 210 95 131 184 274 276 292 304 288 288 280 279 276 273 277 283 288 290 289 288
312 313 311 308 301 298 290 284 277 273 275 275 268 253 242 237 234 231 239 237 236 236 227 226 223 225 221 215 212 209 205 209 209 207 205 206 209 208 212 210 212 209 212 226 260 296 178 172 181 185 194 185 175 189 182 177 165 162 167 174 181 184 190 199 209 183 151 133 86 313 296 303 313 293 285 286 281 272 274 272 273 278 281 282 281
310 308 308 304 300 295 289 284 280 277 269 273 270 264 254 242 237 233 236 239 239 239 232 216 226 233 233 227 212 210 192 191 200 204 197 195 190 193 203 205 205 209 212 216 211 215 205 209 189 186 185 172 178 168 170 164 167 167 168 170 172 175 185 194 199 196 143 108 168 268 286 280 280 273 268 273 270 270 267 269 272 274 278 276 272
302 302 303 304 298 295 284 279 278 271 265 268 269 266 263 255 246 237 237 238 240 242 239 225 227 232 230 231 224 215 195 185 194 189 186 178 188 202 209 210 205 199 203 204 199 199 193 197 206 199 157 159 156 159 161 166 161 154 151 149 159 167 165 177 226 241 256 237 212 206 244 282 265 248 255 264 273 269 267 269 268 270 267 264 263
296 292 290 285 285 290 288 283 282 274 263 248 252 259 260 259 256 248 243 239 240 241 240 233 219 217 220 220 205 215 187 187 190 191 185 171 194 202 209 210 202 201 205 206 196 192 189 188 190 165 144 156 160 158 159 154 148 139 132 110 84 91 112 167 210 223 230 229 198 205 223 240 248 259 265 270 271 272 272 268 270 266 260 257 255
294 292 288 286 287 285 285 283 279 276 274 261 255 261 260 258 256 251 248 243 241 237 234 228 216 216 210 195 196 205 183 194 189 194 195 179 197 202 206 205 203 198 205 195 197 191 182 183 173 150 156 160 161 159 160 159 154 153 132 128 147 157 171 194 223 223 231 204 197 197 213 241 238 241 260 266 272 273 272 266 264 261 255 251 250
292 286 285 284 278 273 273 274 272 273 278 270 261 262 259 256 251 250 250 250 248 241 238 219 217 217 215 218 217 214 199 200 186 195 198 191 202 204 203 200 202 201 200 181 181 186 180 178 172 166 165 171 168 166 168 167 165 154 152 162 167 161 177 202 211 209 216 198 193 186 186 223 229 238 256 272 274 261 258 260 258 249 246 247 248
289 290 285 280 277 271 266 271 273 268 268 270 262 262 260 255 251 246 248 250 253 250 243 230 213 222 217 220 215 213 200 186 187 198 200 196 201 202 199 196 199 199 195 177 172 170 172 171 177 171 175 175 172 171 178 176 176 166 161 139 143 158 185 202 202 198 243 235 193 176 175 224 202 244 240 280 267 262 234 241 238 227 229 248 262